| time (UTC) | temp F | wind direction | speed knots | gust knots | rain 1hr in | rain 24hr in | rain mn in | humidity % | barometer mb |
| 20260507191535 | 67 | 18 | 7.8 | 13.9 | 0.00 | 0.00 | 0.00 | 37 | 1018.6 |
| 20260507190033 | 66 | 18 | 7.8 | 13.0 | 0.00 | 0.00 | 0.00 | 38 | 1018.8 |
| 20260507184534 | 65 | 14 | 6.1 | 10.4 | 0.00 | 0.00 | 0.00 | 41 | 1019.0 |
| 20260507181537 | 65 | 53 | 5.2 | 9.6 | 0.00 | 0.00 | 0.00 | 44 | 1019.2 |
| 20260507180032 | 63 | 26 | 3.5 | 8.7 | 0.00 | 0.00 | 0.00 | 48 | 1019.4 |
| 20260507174537 | 61 | 26 | 5.2 | 9.6 | 0.00 | 0.00 | 0.00 | 51 | 1019.7 |
| 20260507171539 | 60 | 23 | 4.3 | 8.7 | 0.00 | 0.00 | 0.00 | 53 | 1019.7 |
| 20260507170034 | 58 | 35 | 5.2 | 8.7 | 0.00 | 0.00 | 0.00 | 55 | 1019.6 |
| 20260507164641 | 57 | 22 | 7.0 | 10.4 | 0.00 | 0.00 | 0.00 | 56 | 1019.6 |
| 20260507163034 | 57 | 21 | 7.8 | 12.2 | 0.00 | 0.00 | 0.00 | 58 | 1019.6 |
| 20260507161539 | 57 | 43 | 5.2 | 11.3 | 0.00 | 0.00 | 0.00 | 60 | 1019.5 |
| 20260507160032 | 56 | 38 | 5.2 | 8.7 | 0.00 | 0.00 | 0.00 | 62 | 1019.6 |
| 20260507154534 | 56 | 36 | 5.2 | 7.8 | 0.00 | 0.00 | 0.00 | 63 | 1019.5 |
| 20260507153034 | 56 | 31 | 3.5 | 6.1 | 0.00 | 0.00 | 0.00 | 65 | 1019.6 |
| 20260507151531 | 55 | 44 | 3.5 | 6.1 | 0.00 | 0.00 | 0.00 | 66 | 1019.7 |
| 20260507150048 | 55 | 13 | 2.6 | 6.1 | 0.00 | 0.00 | 0.00 | 66 | 1019.7 |
| 20260507144537 | 55 | 334 | 1.7 | 5.2 | 0.00 | 0.00 | 0.00 | 67 | 1019.7 |
| 20260507141532 | 53 | 17 | 1.7 | 3.5 | 0.00 | 0.00 | 0.00 | 72 | 1019.5 |
| 20260507140031 | 51 | 30 | 2.6 | 6.1 | 0.00 | 0.00 | 0.00 | 75 | 1019.5 |
| 20260507134537 | 48 | 67 | 3.5 | 6.1 | 0.00 | 0.00 | 0.00 | 78 | 1019.3 |
| 20260507133106 | 48 | 118 | 2.6 | 6.1 | 0.00 | 0.00 | 0.00 | 77 | 1019.3 |
| 20260507131536 | 49 | 27 | 3.5 | 7.8 | 0.00 | 0.00 | 0.00 | 77 | 1019.2 |
| 20260507130030 | 49 | 349 | 5.2 | 9.6 | 0.00 | 0.00 | 0.00 | 76 | 1019.1 |
| 20260507124531 | 50 | 350 | 6.1 | 10.4 | 0.00 | 0.00 | 0.00 | 73 | 1019.1 |
| 20260507123030 | 51 | 314 | 6.1 | 11.3 | 0.00 | 0.00 | 0.00 | 72 | 1019.0 |
| 20260507121536 | 51 | 286 | 5.2 | 13.9 | 0.00 | 0.00 | 0.00 | 72 | 1018.8 |
| 20260507120033 | 51 | 287 | 6.1 | 13.9 | 0.00 | 0.00 | 0.00 | 72 | 1018.8 |
| 20260507113034 | 51 | 261 | 6.1 | 20.9 | 0.00 | 0.00 | 0.00 | 73 | 1018.8 |
| 20260507111531 | 51 | 246 | 6.1 | 17.4 | 0.00 | 0.00 | 0.00 | 73 | 1018.8 |
| 20260507110032 | 52 | 248 | 7.0 | 19.1 | 0.00 | 0.00 | 0.00 | 72 | 1018.8 |
| 20260507103036 | 52 | 244 | 7.0 | 18.2 | 0.00 | 0.00 | 0.00 | 70 | 1019.0 |
| 20260507101531 | 53 | 266 | 6.1 | 15.6 | 0.00 | 0.00 | 0.00 | 68 | 1019.2 |
| 20260507100048 | 53 | 259 | 7.0 | 21.7 | 0.00 | 0.00 | 0.00 | 68 | 1019.2 |
| 20260507094606 | 53 | 256 | 7.0 | 20.9 | 0.00 | 0.00 | 0.00 | 68 | 1019.2 |
| 20260507091535 | 53 | 229 | 8.7 | 18.2 | 0.00 | 0.00 | 0.00 | 69 | 1019.3 |
| 20260507084535 | 53 | 230 | 7.8 | 18.2 | 0.00 | 0.00 | 0.00 | 69 | 1019.7 |
| 20260507083028 | 54 | 226 | 7.8 | 19.1 | 0.00 | 0.00 | 0.00 | 69 | 1019.7 |
| 20260507081533 | 54 | 240 | 6.1 | 19.1 | 0.00 | 0.00 | 0.00 | 69 | 1019.7 |
| 20260507080149 | 54 | 249 | 5.2 | 13.0 | 0.00 | 0.00 | 0.00 | 69 | 1019.7 |
| 20260507074532 | 54 | 262 | 3.5 | 15.6 | 0.00 | 0.00 | 0.00 | 69 | 1019.8 |
| 20260507071607 | 54 | 275 | 4.3 | 12.2 | 0.00 | 0.00 | 0.00 | 70 | 1019.8 |
| 20260507070030 | 54 | 260 | 4.3 | 11.3 | 0.00 | 0.00 | 0.00 | 70 | 1019.9 |
| 20260507064532 | 54 | 266 | 4.3 | 13.0 | 0.00 | 0.00 | 0.00 | 69 | 1020.0 |
| 20260507063033 | 55 | 264 | 4.3 | 13.0 | 0.00 | 0.00 | 0.00 | 69 | 1020.2 |
| 20260507061535 | 54 | 267 | 3.5 | 13.9 | 0.00 | 0.00 | 0.00 | 69 | 1020.3 |
| 20260507060106 | 55 | 322 | 3.5 | 8.7 | 0.00 | 0.00 | 0.00 | 68 | 1020.4 |
| 20260507053032 | 56 | 284 | 4.3 | 10.4 | 0.00 | 0.00 | 0.00 | 65 | 1020.5 |
| 20260507050037 | 56 | 202 | 4.3 | 18.2 | 0.00 | 0.00 | 0.00 | 62 | 1020.6 |
| 20260507044534 | 56 | 252 | 5.2 | 14.8 | 0.00 | 0.00 | 0.00 | 62 | 1020.3 |
| 20260507041529 | 57 | 209 | 6.1 | 13.0 | 0.00 | 0.00 | 0.00 | 60 | 1020.4 |
| 20260507040045 | 56 | 207 | 5.2 | 10.4 | 0.00 | 0.00 | 0.00 | 59 | 1020.3 |
| 20260507034607 | 57 | 243 | 2.6 | 7.8 | 0.00 | 0.00 | 0.00 | 58 | 1020.3 |
| 20260507033031 | 58 | 233 | 3.5 | 8.7 | 0.00 | 0.00 | 0.00 | 58 | 1020.3 |
| 20260507031530 | 59 | 228 | 2.6 | 6.1 | 0.00 | 0.00 | 0.00 | 59 | 1020.3 |
| 20260507030038 | 60 | 246 | 2.6 | 10.4 | 0.00 | 0.00 | 0.00 | 58 | 1020.3 |
| 20260507024535 | 61 | 260 | 5.2 | 10.4 | 0.00 | 0.00 | 0.00 | 56 | 1020.3 |
| 20260507023150 | 63 | 262 | 7.0 | 16.5 | 0.00 | 0.00 | 0.00 | 54 | 1020.2 |
| 20260507021532 | 64 | 260 | 6.1 | 17.4 | 0.00 | 0.00 | 0.00 | 51 | 1020.0 |
| 20260507020029 | 65 | 264 | 7.0 | 20.0 | 0.00 | 0.00 | 0.00 | 50 | 1019.8 |
| 20260507014552 | 66 | 256 | 6.1 | 12.2 | 0.00 | 0.00 | 0.00 | 48 | 1019.7 |
| 20260507013148 | 67 | 257 | 7.0 | 15.6 | 0.00 | 0.00 | 0.00 | 46 | 1019.6 |
| 20260507011535 | 67 | 245 | 6.1 | 15.6 | 0.00 | 0.00 | 0.00 | 46 | 1019.8 |
| 20260507010031 | 68 | 242 | 6.1 | 13.0 | 0.00 | 0.00 | 0.00 | 44 | 1019.8 |
| 20260507004530 | 70 | 234 | 5.2 | 13.0 | 0.00 | 0.00 | 0.00 | 41 | 1019.7 |
| 20260507003033 | 71 | 224 | 7.0 | 15.6 | 0.00 | 0.00 | 0.00 | 41 | 1019.6 |
| 20260507001606 | 71 | 231 | 6.1 | 17.4 | 0.00 | 0.00 | 0.00 | 41 | 1019.5 |
| 20260507000030 | 71 | 237 | 6.1 | 19.1 | 0.00 | 0.00 | 0.00 | 40 | 1019.4 |
| 20260506234536 | 73 | 255 | 7.8 | 19.1 | 0.00 | 0.00 | 0.00 | 38 | 1019.2 |
| 20260506233035 | 74 | 252 | 6.1 | 15.6 | 0.00 | 0.00 | 0.00 | 38 | 1019.2 |
| 20260506231531 | 74 | 233 | 5.2 | 14.8 | 0.00 | 0.00 | 0.00 | 38 | 1019.2 |
| 20260506230107 | 74 | 243 | 6.1 | 17.4 | 0.00 | 0.00 | 0.00 | 38 | 1019.2 |
| 20260506224607 | 74 | 234 | 6.1 | 18.2 | 0.00 | 0.00 | 0.00 | 39 | 1019.3 |
| 20260506223107 | 73 | 240 | 6.1 | 19.1 | 0.00 | 0.00 | 0.00 | 40 | 1019.5 |
| 20260506221535 | 73 | 270 | 6.1 | 14.8 | 0.00 | 0.00 | 0.00 | 39 | 1019.6 |
| 20260506220032 | 74 | 267 | 7.8 | 19.1 | 0.00 | 0.00 | 0.00 | 38 | 1019.4 |
| 20260506211534 | 74 | 278 | 4.3 | 13.9 | 0.00 | 0.00 | 0.00 | 42 | 1019.4 |
| 20260506210032 | 74 | 274 | 6.1 | 16.5 | 0.00 | 0.00 | 0.00 | 43 | 1019.5 |
| 20260506204535 | 73 | 300 | 5.2 | 13.9 | 0.00 | 0.00 | 0.00 | 44 | 1019.6 |
| 20260506200029 | 74 | 291 | 6.1 | 15.6 | 0.00 | 0.00 | 0.00 | 44 | 1019.6 |